Location: Colossi of Memnon
(25.7167°N, 32.6167°E)
Time: 09:58:24
(UTC+00:00)

CZ-4B R/B - Pass Details

Date: 05 March 2021
Orbit: 388 x 454 km, 97.6° (Epoch: 19 April)

Event Time Altitude Azimuth Distance (km) Brightness Sun altitude
Rises 02:43:39 0° 141° (SE) 2,360 5.6 -20.0°
Reaches altitude 10° 02:46:00 10° 124° (SE) 1,485 4.8 -19.5°
Maximum altitude 02:48:23 20° 75° (ENE) 1,015 4.1 -19.0°
Drops below altitude 10° 02:50:45 10° 25° (NNE) 1,463 4.3 -18.4°
Sets 02:53:02 0° 8° (N) 2,313 5.1 -17.9°
